FW2418 Weather Reports


Display with metric or nautical units.
time (UTC)temp
F
wind
direction
speed
MPH
gust
MPH
rain 1hr
in
rain 24hr
in
rain mn
in
humidity
%
barometer
mb
20260906205007 80 11 1.0 5.0 0.00 0.02 0.01 81 1007.9
20260906203935 81 262 1.0 7.0 0.00 0.03 0.01 75 1007.9
20260906202934 82 292 2.0 7.0 0.00 0.04 0.01 72 1008.3
20260906201934 85 309 1.0 6.0 0.00 0.05 0.01 74 1008.3
20260906200902 90 319 3.0 7.0 0.00 0.05 0.01 73 1008.3
20260906195901 92 319 2.0 3.0 0.00 0.05 0.01 66 1007.6
20260906194900 93 321 1.0 2.0 0.00 0.05 0.01 66 1008.0
20260906193859 92 40 0.0 2.0 0.00 0.06 0.01 69 1008.0
20260906192859 90 240 1.0 2.0 0.00 0.07 0.01 74 1007.9
20260906191858 88 282 1.0 4.0 0.00 0.09 0.01 79 1008.3
20260906190724 89 295 1.0 4.0 0.01 0.09 0.01 75 1008.3
20260906185652 91 307 2.0 3.0 0.01 0.09 0.01 71 1008.3
20260906184651 92 285 1.0 2.0 0.01 0.09 0.01 69 1008.6
20260906183650 92 231 1.0 2.0 0.01 0.09 0.01 70 1008.6
20260906182650 90 284 0.0 2.0 0.01 0.09 0.01 74 1009.0
20260906181649 91 226 0.0 3.0 0.01 0.09 0.01 76 1009.0
20260906180648 93 307 1.0 3.0 0.00 0.08 0.00 69 1009.0
20260906175647 91 313 1.0 2.0 0.00 0.08 0.00 69 1009.3
20260906174646 92 278 1.0 2.0 0.00 0.08 0.00 69 1009.3
20260906173614 93 281 1.0 3.0 0.00 0.08 0.00 67 1009.3
20260906172542 94 280 1.0 3.0 0.00 0.08 0.00 65 1009.3
20260906171541 93 247 2.0 4.0 0.00 0.08 0.00 67 1009.3
20260906170540 93 316 2.0 4.0 0.00 0.08 0.00 67 1009.6
20260906165539 91 193 2.0 4.0 0.00 0.08 0.00 69 1009.6
20260906164538 91 260 2.0 4.0 0.00 0.08 0.00 70 1009.6
20260906163435 91 255 0.0 4.0 0.00 0.08 0.00 71 1010.0
20260906162434 91 308 2.0 4.0 0.00 0.08 0.00 72 1010.0
20260906161402 91 311 2.0 5.0 0.00 0.08 0.00 70 1010.0
20260906160401 90 254 1.0 5.0 0.00 0.08 0.00 72 1010.3
20260906155401 90 260 1.0 3.0 0.00 0.08 0.00 73 1010.3
20260906154400 89 266 1.0 3.0 0.00 0.08 0.00 76 1010.3
20260906153359 89 290 1.0 3.0 0.00 0.08 0.00 77 1010.7
20260906152358 88 267 1.0 3.0 0.00 0.08 0.00 78 1010.7
20260906151357 88 285 1.0 3.0 0.00 0.08 0.00 79 1010.7
20260906150357 87 304 2.0 3.0 0.00 0.08 0.00 83 1010.7
20260906145356 87 264 1.0 3.0 0.00 0.08 0.00 83 1010.3
20260906144355 87 295 1.0 3.0 0.00 0.08 0.00 83 1010.7
20260906143355 86 252 1.0 3.0 0.00 0.08 0.00 86 1010.7
20260906142354 86 311 1.0 2.0 0.00 0.08 0.00 87 1010.7
20260906141353 86 248 1.0 3.0 0.00 0.08 0.00 88 1010.7
20260906140352 85 242 0.0 2.0 0.00 0.08 0.00 89 1010.6
20260906135351 85 305 1.0 2.0 0.00 0.08 0.00 90 1010.6
20260906134350 84 272 1.0 1.0 0.00 0.08 0.00 91 1010.6
20260906133349 84 236 1.0 1.0 0.00 0.08 0.00 90 1010.6
20260906132348 83 277 1.0 2.0 0.00 0.08 0.00 92 1010.6
20260906131347 83 276 1.0 1.0 0.00 0.08 0.00 93 1010.6
20260906130347 82 149 0.0 1.0 0.00 0.08 0.00 95 1010.6
20260906125315 80 264 1.0 1.0 0.00 0.08 0.00 96 1011.0
20260906124314 79 229 1.0 1.0 0.00 0.08 0.00 98 1010.6
20260906123313 78 160 0.0 0.0 0.00 0.08 0.00 100 1010.9
20260906122312 77 160 0.0 0.0 0.00 0.08 0.00 100 1010.9
20260906121240 76 160 0.0 1.0 0.00 0.08 0.00 100 1010.9
20260906120137 75 160 0.0 1.0 0.00 0.08 0.00 100 1010.6
20260906115136 74 161 0.0 0.0 0.00 0.08 0.00 100 1010.6
20260906114104 74 160 0.0 0.0 0.00 0.08 0.00 100 1010.6
20260906113103 74 160 0.0 0.0 0.00 0.08 0.00 99 1010.3
20260906112103 74 160 0.0 0.0 0.00 0.08 0.00 99 1010.3
20260906111102 74 160 0.0 0.0 0.00 0.08 0.00 99 1010.3
20260906105100 74 160 0.0 0.0 0.00 0.08 0.00 99 1009.9
20260906104059 74 160 0.0 0.0 0.00 0.08 0.00 99 1009.9
20260906103058 74 160 0.0 0.0 0.00 0.08 0.00 99 1009.6
20260906102057 74 160 0.0 0.0 0.00 0.08 0.00 99 1009.6
20260906101056 74 160 0.0 0.0 0.00 0.08 0.00 99 1009.6
20260906100056 74 161 0.0 0.0 0.00 0.08 0.00 99 1009.6
20260906095055 74 160 0.0 0.0 0.00 0.08 0.00 99 1009.3
20260906094023 74 160 0.0 0.0 0.00 0.08 0.00 99 1009.3
20260906093022 74 160 0.0 0.0 0.00 0.08 0.00 99 1008.9
20260906092021 75 160 0.0 0.0 0.00 0.08 0.00 99 1008.9
20260906091021 75 160 0.0 0.0 0.00 0.08 0.00 99 1008.9
20260906090020 75 160 0.0 0.0 0.00 0.08 0.00 99 1008.9
20260906085019 75 160 0.0 0.0 0.00 0.09 0.00 99 1008.9
20260906083947 75 160 0.0 0.0 0.00 0.09 0.00 99 1008.9
20260906082946 75 160 0.0 0.0 0.00 0.09 0.00 99 1008.9
20260906081914 75 160 0.0 0.0 0.00 0.09 0.00 99 1008.9
20260906080914 75 160 0.0 0.0 0.00 0.09 0.00 99 1008.6
20260906075842 75 160 0.0 0.0 0.00 0.09 0.00 99 1008.6
20260906074841 75 160 0.0 0.0 0.00 0.09 0.00 99 1008.9
20260906073840 75 160 0.0 0.0 0.00 0.09 0.00 99 1008.6
20260906072839 75 160 0.0 0.0 0.00 0.09 0.00 99 1008.9
20260906071838 75 160 0.0 0.0 0.00 0.09 0.00 99 1008.9
20260906070735 75 160 0.0 0.0 0.00 0.09 0.00 98 1008.9
20260906065703 75 160 0.0 0.0 0.00 0.09 0.00 99 1008.9
20260906064703 75 160 0.0 0.0 0.00 0.09 0.00 98 1008.9
20260906063702 75 160 0.0 0.0 0.00 0.09 0.00 98 1009.3
20260906062701 75 160 0.0 0.0 0.00 0.09 0.00 98 1009.6
20260906061700 75 160 0.0 0.0 0.00 0.09 0.00 98 1009.6
20260906060700 75 160 0.0 0.0 0.00 0.09 0.00 98 1009.6
20260906055627 75 160 0.0 0.0 0.00 0.09 0.00 98 1009.6
20260906054627 75 160 0.0 0.0 0.00 0.09 0.00 98 1010.0
20260906053626 75 160 0.0 0.0 0.00 0.09 0.00 98 1010.0
20260906052553 75 160 0.0 0.0 0.00 0.09 0.00 98 1010.3
20260906051553 76 160 0.0 0.0 0.00 0.09 0.00 98 1010.3
20260906050521 76 160 0.0 0.0 0.00 0.09 0.00 97 1010.3
20260906045520 76 160 0.0 0.0 0.00 0.09 0.00 97 1010.3
20260906044519 76 160 0.0 0.0 0.00 0.09 0.00 97 1010.7
20260906043518 76 160 0.0 0.0 0.00 0.09 0.00 97 1010.7
20260906042517 77 160 0.0 0.0 0.00 0.09 0.00 97 1010.7
20260906041516 77 160 0.0 0.0 0.00 0.09 0.00 97 1010.7
20260906040515 77 160 0.0 0.0 0.00 0.09 0.00 97 1010.7
20260906035514 77 160 0.0 0.0 0.00 0.09 0.09 97 1010.7
20260906034513 77 160 0.0 0.0 0.00 0.09 0.09 97 1010.7
20260906033441 77 160 0.0 0.0 0.00 0.09 0.09 98 1010.6
20260906032440 77 160 0.0 0.0 0.00 0.09 0.09 97 1010.6
20260906031440 77 160 0.0 0.0 0.00 0.09 0.09 97 1010.6
20260906030439 77 160 0.0 0.0 0.00 0.09 0.09 97 1010.6
20260906025438 77 160 0.0 0.0 0.00 0.09 0.09 97 1010.6
20260906024437 77 160 0.0 0.0 0.00 0.09 0.09 97 1010.6
20260906023436 77 160 0.0 0.0 0.00 0.09 0.09 97 1010.6
20260906022435 77 160 0.0 1.0 0.00 0.09 0.09 97 1010.6
20260906021434 78 160 0.0 1.0 0.00 0.09 0.09 97 1010.6
20260906020434 78 160 0.0 1.0 0.00 0.09 0.09 97 1010.6
20260906015433 78 165 0.0 2.0 0.00 0.09 0.09 97 1010.6
20260906014432 78 141 1.0 2.0 0.00 0.09 0.09 97 1010.6
20260906013431 78 163 0.0 1.0 0.00 0.09 0.09 97 1010.3
20260906012358 78 152 0.0 1.0 0.00 0.09 0.09 97 1010.3
20260906011357 78 156 1.0 1.0 0.00 0.09 0.09 97 1010.3
20260906010356 78 135 0.0 1.0 0.00 0.10 0.09 97 1009.9
20260906005355 78 141 0.0 1.0 0.00 0.12 0.09 97 1009.9
20260906004323 78 139 1.0 1.0 0.00 0.14 0.09 97 1009.9
20260906003323 78 134 0.0 1.0 0.00 0.16 0.09 97 1009.9
20260906002321 78 134 0.0 1.0 0.00 0.17 0.09 97 1009.9
20260906001320 78 134 0.0 1.0 0.00 0.19 0.09 97 1009.9
20260906000319 78 134 1.0 1.0 0.00 0.21 0.09 97 1009.9
20260905235319 78 128 0.0 1.0 0.00 0.22 0.09 97 1009.6
20260905234318 78 111 0.0 0.0 0.00 0.23 0.09 96 1009.9
20260905233245 79 111 0.0 0.0 0.00 0.23 0.09 96 1009.9
20260905232244 79 111 0.0 1.0 0.00 0.24 0.09 95 1009.9
20260905231244 79 112 0.0 1.0 0.00 0.24 0.09 96 1009.9
20260905230243 79 108 1.0 1.0 0.00 0.24 0.09 96 1009.9
20260905225242 79 118 1.0 1.0 0.00 0.24 0.09 95 1009.9
20260905224241 79 258 1.0 1.0 0.00 0.24 0.09 96 1009.9
20260905223240 79 159 0.0 1.0 0.00 0.25 0.09 96 1009.6
20260905222239 79 72 1.0 2.0 0.00 0.26 0.09 96 1009.6
20260905221239 79 36 0.0 1.0 0.00 0.27 0.09 96 1009.6
20260905220238 78 36 0.0 0.0 0.01 0.27 0.09 96 1009.6
20260905215205 78 36 0.0 1.0 0.01 0.27 0.09 96 1009.6
20260905214205 78 27 0.0 1.0 0.02 0.28 0.09 96 1009.6
20260905213204 78 49 0.0 1.0 0.03 0.31 0.09 96 1009.6
20260905212203 77 49 1.0 1.0 0.04 0.33 0.09 96 1009.9
20260905211132 77 49 0.0 1.0 0.04 0.33 0.09 96 1009.9
20260905210130 77 48 0.0 1.0 0.03 0.32 0.08 96 1010.3